TimeEDT,TemperatureF,Dew PointF,Humidity,Sea Level PressureIn,VisibilityMPH,Wind Direction,Wind SpeedMPH,Gust SpeedMPH,PrecipitationIn,Events,Conditions,WindDirDegrees,DateUTC
12:54 AM,60.1,59.0,96,29.79,10.0,SW,4.6,-,0.00,,Mostly Cloudy,230,2013-06-02 04:54:00
1:54 AM,60.1,59.0,96,29.79,10.0,WSW,4.6,-,0.01,,Clear,240,2013-06-02 05:54:00
2:54 AM,60.1,59.0,96,29.80,10.0,WSW,4.6,-,N/A,,Clear,240,2013-06-02 06:54:00
3:54 AM,59.0,57.9,96,29.80,10.0,SW,4.6,-,N/A,,Clear,230,2013-06-02 07:54:00
4:54 AM,59.0,57.9,96,29.82,10.0,SW,5.8,-,N/A,,Mostly Cloudy,220,2013-06-02 08:54:00
5:54 AM,59.0,57.0,93,29.82,10.0,SW,4.6,-,N/A,,Clear,230,2013-06-02 09:54:00
6:54 AM,59.0,57.0,93,29.84,10.0,WSW,5.8,-,N/A,,Clear,250,2013-06-02 10:54:00
7:13 AM,59.0,57.2,94,29.86,10.0,Variable,5.8,-,N/A,,Mostly Cloudy,0,2013-06-02 11:13:00
7:28 AM,59.0,57.2,94,29.86,10.0,WSW,5.8,-,N/A,,Overcast,250,2013-06-02 11:28:00
7:54 AM,60.1,57.9,93,29.86,10.0,WSW,5.8,-,N/A,,Overcast,250,2013-06-02 11:54:00
8:54 AM,60.1,59.0,96,29.87,10.0,West,4.6,-,N/A,,Overcast,260,2013-06-02 12:54:00
9:42 AM,60.8,59.0,94,29.89,10.0,West,5.8,-,N/A,,Overcast,260,2013-06-02 13:42:00
9:54 AM,61.0,59.0,93,29.88,10.0,WSW,4.6,-,N/A,,Overcast,250,2013-06-02 13:54:00
10:17 AM,60.8,59.0,94,29.89,10.0,West,4.6,-,N/A,,Overcast,260,2013-06-02 14:17:00
10:25 AM,60.8,59.0,94,29.89,10.0,West,6.9,-,N/A,,Overcast,260,2013-06-02 14:25:00
10:41 AM,62.6,59.0,88,29.89,10.0,WSW,4.6,-,N/A,,Overcast,240,2013-06-02 14:41:00
10:54 AM,62.1,59.0,90,29.90,10.0,West,6.9,-,N/A,,Overcast,260,2013-06-02 14:54:00
11:51 AM,64.4,60.8,88,29.91,10.0,WSW,5.8,-,N/A,,Overcast,250,2013-06-02 15:51:00
11:54 AM,63.0,60.1,90,29.91,10.0,WSW,4.6,-,N/A,,Overcast,250,2013-06-02 15:54:00
12:17 PM,64.4,60.8,88,29.91,10.0,WSW,5.8,-,N/A,,Overcast,240,2013-06-02 16:17:00
12:27 PM,64.4,60.8,88,29.91,10.0,West,6.9,-,N/A,,Overcast,260,2013-06-02 16:27:00
12:34 PM,64.4,60.8,88,29.91,10.0,SW,6.9,-,N/A,,Overcast,230,2013-06-02 16:34:00
12:54 PM,66.0,61.0,84,29.91,10.0,West,6.9,-,N/A,,Overcast,270,2013-06-02 16:54:00
1:20 PM,66.2,60.8,83,29.91,10.0,West,6.9,-,N/A,,Overcast,270,2013-06-02 17:20:00
1:54 PM,61.0,57.0,87,29.92,10.0,North,11.5,-,0.00,,Overcast,350,2013-06-02 17:54:00
2:38 PM,64.4,57.2,77,29.94,10.0,North,8.1,-,N/A,,Overcast,360,2013-06-02 18:38:00
2:54 PM,64.0,57.9,80,29.94,10.0,North,9.2,-,N/A,,Overcast,10,2013-06-02 18:54:00
3:52 PM,64.4,57.2,77,29.95,10.0,NNW,12.7,-,N/A,,Overcast,330,2013-06-02 19:52:00
3:54 PM,64.0,55.9,75,29.95,10.0,NNW,11.5,-,N/A,,Overcast,330,2013-06-02 19:54:00
4:14 PM,62.6,55.4,77,29.96,10.0,NNW,9.2,-,N/A,,Overcast,340,2013-06-02 20:14:00
4:54 PM,62.1,55.0,78,29.96,10.0,North,9.2,-,N/A,,Overcast,350,2013-06-02 20:54:00
5:46 PM,60.8,53.6,77,29.96,10.0,North,10.4,-,N/A,,Overcast,360,2013-06-02 21:46:00
5:54 PM,61.0,54.0,78,29.95,10.0,North,11.5,-,N/A,,Overcast,10,2013-06-02 21:54:00
6:32 PM,60.8,53.6,77,29.96,10.0,North,13.8,-,N/A,,Overcast,350,2013-06-02 22:32:00
6:54 PM,60.1,53.1,78,29.96,10.0,NNW,9.2,-,N/A,,Overcast,330,2013-06-02 22:54:00
7:54 PM,57.9,51.1,78,29.97,10.0,North,11.5,-,N/A,,Overcast,350,2013-06-02 23:54:00
8:12 PM,57.2,50.0,77,29.98,10.0,North,11.5,-,N/A,,Overcast,350,2013-06-03 00:12:00
8:54 PM,55.9,48.9,77,29.99,10.0,North,9.2,-,N/A,,Overcast,350,2013-06-03 00:54:00
9:02 PM,55.4,48.2,77,29.99,10.0,North,9.2,-,N/A,,Overcast,10,2013-06-03 01:02:00
9:37 PM,53.6,46.4,77,30.00,10.0,North,5.8,-,N/A,,Scattered Clouds,360,2013-06-03 01:37:00
9:54 PM,53.1,46.9,80,30.01,10.0,North,8.1,-,N/A,,Mostly Cloudy,10,2013-06-03 01:54:00
10:54 PM,53.1,45.0,74,30.03,10.0,NNE,4.6,-,N/A,,Overcast,20,2013-06-03 02:54:00
11:54 PM,53.1,46.0,77,30.04,10.0,NNE,6.9,-,N/A,,Overcast,20,2013-06-03 03:54:00